Theta_e
332 332 330 330 332 331 333 332 335 336 336 337 336 335 335 336 340 340 340 350 347 347 347 345 343 342 343 345 347 347 348 348 345 345 343 343 340 339 341 340 338 337 339
333 330 329 329 330 331 332 333 332 333 333 333 333 334 335 338 340 338 340 340 345 345 345 343 342 342 342 344 345 347 347 347 347 346 344 342 340 341 341 341 339 337 338
334 331 330 328 329 330 329 332 330 330 330 332 332 334 336 340 336 336 335 333 337 344 344 344 343 342 342 342 344 344 346 347 348 346 343 341 340 340 342 341 340 339 339
335 333 332 330 330 330 331 332 331 329 329 330 332 334 337 338 334 332 332 332 332 334 340 344 343 343 343 342 344 343 345 345 346 346 344 341 341 340 342 342 340 339 338
337 336 334 334 330 331 332 332 330 330 328 328 329 334 336 333 331 333 333 332 331 332 331 338 342 342 342 342 343 343 344 344 345 344 343 343 342 342 340 342 341 340 338
339 337 337 334 336 331 330 330 328 328 327 327 331 331 331 330 329 329 330 331 331 333 332 330 331 335 341 342 343 344 343 343 344 345 344 342 342 341 342 342 341 339 339
342 337 337 338 337 335 334 331 329 326 326 328 325 324 324 327 327 328 328 328 329 331 331 331 330 330 331 340 340 343 342 342 342 344 344 341 341 340 340 341 339 339 338
343 342 338 339 338 336 333 331 329 325 325 328 322 319 316 319 321 325 326 327 328 329 331 332 331 330 330 329 331 342 342 341 342 342 344 342 341 341 341 340 339 339 339
346 343 342 341 339 337 334 331 329 326 324 326 325 323 314 312 313 319 322 324 326 325 327 328 331 331 330 329 332 336 341 343 343 343 344 342 342 342 341 340 339 340 339
345 344 342 340 339 338 335 332 331 328 327 323 325 326 322 318 313 311 317 321 324 325 325 325 328 329 330 328 333 334 337 338 343 343 345 344 342 342 341 339 341 340 339
344 345 343 340 339 337 337 335 331 330 327 324 322 320 320 319 317 313 310 314 319 322 324 324 325 326 329 327 328 332 335 335 337 339 342 343 342 341 341 341 340 340 339
340 342 342 340 339 337 336 333 333 331 328 326 324 321 319 316 315 315 312 313 313 317 322 323 322 322 326 328 332 334 332 331 331 331 334 338 339 341 341 341 340 340 340
335 338 339 338 336 336 336 333 332 330 328 325 323 322 321 319 319 318 315 312 313 316 318 321 322 323 327 329 330 334 333 329 327 327 328 332 335 337 339 339 339 339 339
339 339 339 339 339 337 335 334 335 331 328 325 323 322 320 321 321 319 317 316 310 312 315 316 321 324 325 327 330 333 331 327 326 324 325 327 330 331 333 335 335 335 335
339 338 338 338 337 335 333 331 329 328 327 325 324 323 320 320 321 321 320 317 312 308 310 317 318 324 328 329 331 332 329 327 326 322 322 322 325 327 328 328 329 328 329
340 338 337 337 335 335 332 330 327 328 326 324 324 323 321 321 321 321 319 318 316 313 310 315 318 321 329 329 332 329 328 326 324 321 321 321 322 324 324 324 324 325 326
338 338 338 335 335 332 330 328 327 327 325 324 324 323 322 322 319 318 318 316 317 320 314 316 318 320 324 326 328 328 325 326 324 321 322 321 321 321 321 320 321 322 323
338 339 337 334 333 332 329 328 327 328 325 324 324 324 322 324 319 318 317 315 316 317 317 313 316 318 320 327 326 326 326 327 326 322 320 320 319 318 318 318 318 318 318
338 337 335 333 332 331 329 328 328 327 326 325 325 324 323 322 319 319 318 315 316 319 317 315 318 322 320 325 325 325 323 323 325 322 318 318 317 317 316 316 315 315 313
335 333 333 332 333 333 332 330 327 326 325 326 326 326 325 323 321 320 319 317 317 317 317 316 315 320 320 322 324 321 318 321 320 322 320 318 317 317 316 315 315 314 311
330 330 329 330 330 332 331 329 329 323 324 324 325 326 324 323 322 321 322 319 318 316 316 315 316 319 321 321 319 320 317 317 317 319 318 319 320 319 316 316 319 317 311
326 327 328 330 328 327 312 315 324 324 324 324 322 320 319 319 317 315 315 317 320 319 314 314 313 318 319 318 320 318 317 316 313 320 317 315 320 317 317 319 314 311 309
325 325 327 325 323 318 305 309 314 325 324 321 319 319 320 322 318 319 311 312 311 312 315 316 317 317 318 320 320 317 318 312 314 317 318 312 317 315 316 315 309 307 307
326 326 322 318 317 313 302 305 312 324 323 322 321 319 319 318 318 317 318 316 315 318 316 319 319 317 318 322 321 319 316 316 316 315 316 310 314 314 316 315 308 307 305
323 321 320 317 315 311 301 303 315 322 322 321 322 321 321 317 301 303 315 313 314 314 306 305 306 303 303 305 313 318 315 315 312 311 314 313 313 313 315 313 313 306 304
322 324 320 317 312 313 301 302 315 321 320 322 322 321 310 313 300 302 316 315 316 315 316 315 313 307 309 309 307 320 317 315 312 311 314 312 313 314 311 315 312 309 307
Wind_Speed
7 6 6 6 6 5 6 5 6 6 7 8 7 7 8 7 7 4 3 16 18 18 14 14 13 12 11 9 8 9 9 11 13 15 16 19 21 21 21 20 18 14 17
8 7 6 8 7 7 6 7 7 7 7 5 7 7 9 6 6 6 3 4 14 13 13 12 13 12 12 11 10 10 9 10 12 15 17 18 16 14 17 18 19 18 19
10 9 7 7 7 7 7 6 5 4 4 5 7 6 5 7 5 5 4 4 5 12 11 12 12 11 12 12 13 12 9 10 10 13 18 17 13 14 16 17 17 17 16
11 9 7 7 7 6 7 7 5 4 6 5 5 6 6 5 5 7 7 5 3 3 8 13 12 12 12 13 14 16 11 9 10 13 15 17 16 15 13 14 17 18 17
12 10 8 7 7 6 6 7 4 4 4 4 5 4 4 4 5 3 6 5 6 6 4 9 10 10 10 12 13 15 14 9 10 12 14 16 18 17 15 15 15 13 16
12 11 7 8 8 5 5 4 4 4 4 5 4 4 4 4 3 3 4 4 5 6 6 6 4 5 10 10 12 15 14 12 10 14 14 15 16 16 14 15 14 13 13
11 11 8 8 7 8 9 7 5 6 3 3 4 1 2 4 4 4 2 3 5 6 6 5 4 3 3 9 10 12 13 12 13 13 14 15 18 19 15 12 14 14 13
10 10 10 9 8 5 6 6 5 3 2 3 4 3 2 5 4 2 2 3 6 3 5 5 6 6 5 3 6 10 13 13 13 13 14 15 17 15 15 16 18 12 11
10 11 11 9 8 6 5 5 6 7 4 1 2 5 2 4 2 3 1 2 4 2 3 4 6 5 4 4 5 7 11 11 13 12 14 14 13 16 18 11 12 10 11
10 10 10 8 6 5 6 6 5 4 5 4 1 2 2 4 3 3 3 3 4 3 4 3 5 5 5 4 7 9 10 11 12 13 14 14 13 16 15 15 13 14 15
8 9 9 7 6 5 6 7 5 6 3 4 3 3 1 0 1 3 3 3 3 2 3 4 4 4 5 4 4 5 11 11 10 11 11 14 15 15 14 15 15 17 17
5 7 8 7 6 5 6 5 5 7 5 4 3 3 4 4 3 3 2 3 3 3 2 3 4 4 3 3 5 6 9 9 8 9 11 11 12 15 17 17 17 19 21
3 6 6 6 4 5 6 6 6 6 6 4 5 4 3 3 3 3 3 2 3 2 1 2 4 4 3 3 3 6 10 9 8 9 10 12 12 16 17 18 18 19 21
8 7 6 7 7 7 6 6 5 5 5 4 6 4 3 4 3 3 4 4 0 2 1 4 1 4 4 4 5 8 6 10 8 9 12 12 13 13 16 14 14 16 15
7 9 8 7 7 7 8 7 5 5 5 5 5 5 3 3 2 3 3 3 5 3 3 2 2 2 2 3 4 5 4 7 8 8 10 8 14 15 16 12 14 13 13
10 9 7 7 8 8 7 7 5 5 6 3 4 6 3 2 3 2 2 2 2 4 2 3 3 1 3 3 4 5 6 6 7 9 11 12 14 17 15 14 15 14 13
11 11 10 9 10 8 7 6 6 6 6 5 4 5 5 5 3 2 2 2 2 2 2 1 0 2 3 6 4 5 4 4 3 8 13 12 15 17 16 15 15 14 12
11 11 10 10 10 9 7 7 7 6 6 6 6 6 6 4 4 4 3 3 3 2 3 2 2 2 4 4 4 7 4 3 4 6 11 14 16 17 16 15 13 13 13
11 11 11 11 10 10 8 7 7 7 7 6 6 6 6 6 5 3 4 4 2 1 1 3 2 2 3 3 6 6 5 5 4 10 9 13 13 16 15 13 13 12 12
12 11 10 9 9 9 8 7 6 6 6 7 6 6 6 7 6 6 5 5 3 3 2 4 3 3 3 4 5 6 5 4 4 5 7 7 9 14 14 13 13 13 12
10 10 9 7 7 8 6 7 6 6 6 6 4 4 4 5 7 7 4 5 6 4 3 4 3 3 4 5 6 3 4 5 5 3 4 3 6 5 4 7 9 12 11
8 8 8 9 7 4 6 11 9 7 6 7 6 4 3 3 4 8 7 8 8 7 5 4 3 7 4 3 5 7 7 4 3 2 4 3 4 4 3 3 8 10 10
8 8 9 9 7 6 6 10 11 6 7 6 6 5 4 2 4 4 5 5 5 6 8 7 9 7 8 7 8 8 7 3 3 2 6 2 2 4 2 3 8 9 8
10 9 8 7 7 4 5 8 9 7 6 6 6 6 5 4 3 5 6 6 6 5 3 3 7 7 6 8 10 8 8 7 6 3 3 3 1 2 2 3 7 7 7
7 6 7 8 8 5 5 6 8 6 6 6 5 5 5 5 1 9 8 7 5 3 5 5 9 11 14 13 11 10 8 10 4 1 1 3 2 2 2 2 3 10 10
7 8 7 6 8 7 4 4 6 5 6 5 3 4 6 7 7 10 8 8 7 3 6 7 6 7 9 10 8 8 11 9 5 2 3 3 3 3 2 3 3 4 4
Wind_Direction
199 195 191 191 202 192 187 191 206 214 216 223 238 228 243 242 240 238 225 207 197 207 215 222 221 212 213 212 202 204 210 211 199 201 176 169 185 190 190 185 178 173 161
199 198 190 199 195 202 195 197 203 212 220 211 232 231 244 245 219 207 232 223 200 206 213 221 218 214 215 210 203 214 206 214 199 199 184 187 196 187 201 179 181 186 181
194 194 190 195 196 202 182 200 202 196 203 213 232 229 228 230 216 197 195 225 225 215 211 213 217 218 218 216 204 219 206 213 199 194 182 191 188 202 192 185 183 188 180
191 193 186 194 192 182 186 194 195 200 211 200 225 239 240 213 182 189 208 220 220 228 229 216 212 216 217 220 203 214 217 206 200 185 191 195 188 201 203 189 192 196 187
191 189 193 193 188 181 186 190 197 180 197 204 210 208 208 223 233 194 200 221 198 210 213 243 222 221 217 227 213 212 218 196 202 189 184 193 195 202 195 195 200 190 190
189 192 190 185 192 184 182 168 171 193 201 195 187 176 227 259 248 236 220 198 206 210 211 202 238 217 215 222 218 215 217 203 204 193 189 192 195 202 196 193 201 193 201
191 189 193 190 191 192 201 190 163 170 194 166 110 12 291 266 278 254 205 256 219 205 210 196 207 188 218 218 220 217 224 215 214 202 190 202 202 203 192 193 223 208 210
184 186 184 191 183 163 184 179 153 141 154 183 127 87 351 329 331 328 179 220 243 203 210 199 202 200 188 201 209 217 218 225 220 207 197 200 212 199 193 188 216 212 186
182 182 183 182 172 169 184 178 168 160 150 210 156 138 91 230 331 326 352 243 246 210 226 218 201 192 177 181 212 217 211 223 225 212 205 206 218 199 202 172 216 177 164
181 177 177 171 160 167 180 177 168 156 132 159 103 98 94 144 183 323 337 323 270 246 241 240 196 187 174 175 201 207 203 215 215 212 206 212 208 197 183 183 170 151 151
170 164 168 158 159 172 185 158 158 150 137 143 144 129 168 112 123 140 256 305 316 252 239 231 196 205 179 195 204 211 193 204 199 206 198 205 204 197 176 174 159 160 160
158 157 164 161 167 165 170 160 169 149 158 141 141 150 159 166 196 161 177 246 243 293 273 232 195 214 200 188 201 207 181 179 190 199 196 187 193 168 165 163 163 171 160
148 174 159 163 161 174 162 146 154 146 157 156 160 187 180 188 158 162 138 204 231 298 306 275 224 201 213 179 224 211 176 180 182 182 183 175 173 157 154 159 160 163 152
173 167 165 165 158 153 142 153 145 144 157 162 174 170 175 197 180 167 175 146 10 313 317 251 273 209 199 184 217 160 162 166 185 176 181 175 167 151 148 152 150 151 144
161 166 159 158 141 140 137 141 137 150 156 166 174 175 163 184 165 186 173 146 153 190 261 263 226 237 166 143 178 122 139 157 174 168 157 151 155 160 138 130 128 128 131
154 152 151 139 134 139 139 140 142 151 154 164 163 168 169 158 164 172 168 144 159 153 196 206 246 181 158 101 151 113 110 123 153 147 140 142 137 127 121 128 131 134 140
150 154 153 137 142 144 148 143 157 157 163 165 164 165 185 172 173 188 174 153 167 155 147 336 335 47 87 125 97 80 92 108 103 143 150 138 145 132 135 139 141 146 137
159 153 143 139 147 151 154 158 166 163 162 178 182 180 190 170 190 193 180 197 182 170 130 151 60 66 81 114 117 106 96 95 101 132 143 141 140 133 136 142 143 133 143
143 144 139 147 155 162 163 175 166 162 183 184 185 183 187 179 203 192 183 194 176 164 144 129 117 79 92 105 94 81 97 74 71 105 118 132 133 132 139 141 136 143 150
141 138 146 153 161 154 168 166 167 185 181 177 192 189 178 192 194 199 195 185 169 151 140 107 91 107 94 92 108 114 116 68 72 72 81 121 135 132 139 141 145 148 151
133 141 145 151 156 151 168 159 166 160 153 154 158 152 181 198 202 197 173 185 159 146 137 124 114 120 128 140 139 117 105 90 58 77 92 92 116 112 114 125 145 151 148
128 134 139 141 132 129 160 147 143 143 145 146 144 136 145 141 150 161 207 190 163 156 151 133 134 148 144 112 130 132 131 133 112 73 97 72 121 124 132 138 148 144 145
128 125 125 120 121 124 147 136 142 143 144 146 147 147 150 165 172 140 71 90 161 177 166 147 153 156 156 154 139 143 146 101 111 128 111 78 61 118 124 117 130 138 159
133 128 122 124 119 116 123 133 146 135 134 149 149 154 150 174 159 140 118 95 85 92 111 149 158 151 133 145 155 150 126 103 80 57 88 111 97 113 131 131 172 193 193
118 124 139 133 132 139 109 129 132 132 133 142 151 153 141 126 158 133 121 108 93 81 38 93 118 119 123 120 132 128 138 141 130 102 36 108 152 103 143 173 204 208 207
128 137 130 135 137 133 132 127 140 124 127 127 118 126 116 135 164 147 134 129 119 105 124 97 88 82 118 138 155 157 153 155 133 135 203 103 128 137 174 206 197 201 217